| time (UTC) | temp C | wind direction | speed KPH | gust KPH | rain 1hr cm | rain 24hr cm | rain mn cm | humidity % | barometer mb |
| 20260510204229 | 18 | 100 | 4.8 | 14.5 | 0.00 | 0.00 | 0.00 | 46 | 1021.3 |
| 20260510203726 | 18 | 63 | 3.2 | 6.4 | 0.00 | 0.00 | 0.00 | 45 | 1021.3 |
| 20260510203223 | 18 | 69 | 3.2 | 14.5 | 0.00 | 0.00 | 0.00 | 45 | 1021.5 |
| 20260510202718 | 18 | 99 | 8.0 | 12.9 | 0.00 | 0.00 | 0.00 | 44 | 1021.6 |
| 20260510202213 | 18 | 61 | 8.0 | 11.3 | 0.00 | 0.00 | 0.00 | 43 | 1021.5 |
| 20260510201711 | 18 | 92 | 3.2 | 6.4 | 0.00 | 0.00 | 0.00 | 46 | 1021.6 |
| 20260510201207 | 17 | 72 | 3.2 | 6.4 | 0.00 | 0.00 | 0.00 | 47 | 1021.8 |
| 20260510200704 | 18 | 129 | 3.2 | 4.8 | 0.00 | 0.00 | 0.00 | 45 | 1021.5 |
| 20260510200202 | 18 | 107 | 8.0 | 14.5 | 0.00 | 0.00 | 0.00 | 43 | 1021.8 |
| 20260510195659 | 18 | 111 | 6.4 | 12.9 | 0.00 | 0.00 | 0.00 | 44 | 1021.8 |
| 20260510195155 | 18 | 55 | 3.2 | 12.9 | 0.00 | 0.00 | 0.00 | 43 | 1021.8 |
| 20260510194654 | 18 | 87 | 6.4 | 9.7 | 0.00 | 0.00 | 0.00 | 44 | 1021.6 |
| 20260510194151 | 18 | 134 | 8.0 | 12.9 | 0.00 | 0.00 | 0.00 | 44 | 1021.8 |
| 20260510193646 | 18 | 79 | 1.6 | 12.9 | 0.00 | 0.00 | 0.00 | 42 | 1022.1 |
| 20260510193142 | 18 | 60 | 6.4 | 11.3 | 0.00 | 0.00 | 0.00 | 43 | 1021.9 |
| 20260510192637 | 17 | 159 | 3.2 | 12.9 | 0.00 | 0.00 | 0.00 | 44 | 1022.0 |
| 20260510192133 | 18 | 18 | 4.8 | 11.3 | 0.00 | 0.00 | 0.00 | 41 | 1021.8 |
| 20260510191630 | 18 | 23 | 3.2 | 12.9 | 0.00 | 0.00 | 0.00 | 43 | 1021.8 |
| 20260510191126 | 18 | 37 | 3.2 | 6.4 | 0.00 | 0.00 | 0.00 | 45 | 1022.0 |
| 20260510190623 | 18 | 71 | 1.6 | 6.4 | 0.00 | 0.00 | 0.00 | 46 | 1022.0 |
| 20260510190121 | 18 | 50 | 3.2 | 6.4 | 0.00 | 0.00 | 0.00 | 47 | 1021.8 |
| 20260510185617 | 18 | 30 | 3.2 | 16.1 | 0.00 | 0.00 | 0.00 | 48 | 1021.8 |
| 20260510185115 | 17 | 97 | 8.0 | 16.1 | 0.00 | 0.00 | 0.00 | 47 | 1021.8 |
| 20260510184612 | 17 | 55 | 6.4 | 11.3 | 0.00 | 0.00 | 0.00 | 49 | 1021.6 |
| 20260510184108 | 17 | 55 | 3.2 | 4.8 | 0.00 | 0.00 | 0.00 | 47 | 1021.9 |
| 20260510183603 | 17 | 29 | 1.6 | 12.9 | 0.00 | 0.00 | 0.00 | 47 | 1021.9 |
| 20260510183058 | 17 | 112 | 12.9 | 14.5 | 0.00 | 0.00 | 0.00 | 43 | 1022.0 |
| 20260510182555 | 17 | 116 | 8.0 | 11.3 | 0.00 | 0.00 | 0.00 | 44 | 1021.9 |
| 20260510182050 | 17 | 126 | 11.3 | 16.1 | 0.00 | 0.00 | 0.00 | 46 | 1021.9 |
| 20260510181548 | 17 | 71 | 3.2 | 11.3 | 0.00 | 0.00 | 0.00 | 45 | 1022.0 |
| 20260510181044 | 16 | 100 | 6.4 | 11.3 | 0.00 | 0.00 | 0.00 | 50 | 1022.0 |
| 20260510180541 | 16 | 58 | 3.2 | 16.1 | 0.00 | 0.00 | 0.00 | 47 | 1022.1 |
| 20260510180038 | 16 | 35 | 8.0 | 11.3 | 0.00 | 0.00 | 0.00 | 45 | 1021.9 |
| 20260510175533 | 16 | 98 | 4.8 | 11.3 | 0.00 | 0.00 | 0.00 | 43 | 1021.6 |
| 20260510175030 | 16 | 106 | 3.2 | 9.7 | 0.00 | 0.00 | 0.00 | 47 | 1021.5 |
| 20260510174528 | 16 | 95 | 8.0 | 9.7 | 0.00 | 0.00 | 0.00 | 44 | 1021.4 |
| 20260510174025 | 16 | 75 | 6.4 | 11.3 | 0.00 | 0.00 | 0.00 | 45 | 1021.3 |
| 20260510173520 | 16 | 63 | 1.6 | 14.5 | 0.00 | 0.00 | 0.00 | 45 | 1021.4 |
| 20260510173017 | 16 | 89 | 9.7 | 17.7 | 0.00 | 0.00 | 0.00 | 44 | 1021.4 |
| 20260510172513 | 16 | 85 | 1.6 | 12.9 | 0.00 | 0.00 | 0.00 | 47 | 1021.2 |
| 20260510172009 | 17 | 99 | 3.2 | 17.7 | 0.00 | 0.00 | 0.00 | 44 | 1021.3 |
| 20260510171506 | 16 | 85 | 3.2 | 24.1 | 0.00 | 0.00 | 0.00 | 43 | 1021.2 |
| 20260510171003 | 17 | 11 | 8.0 | 25.7 | 0.00 | 0.00 | 0.00 | 42 | 1021.2 |
| 20260510170459 | 17 | 138 | 1.6 | 9.7 | 0.00 | 0.00 | 0.00 | 44 | 1021.1 |
| 20260510165955 | 17 | 104 | 4.8 | 11.3 | 0.00 | 0.00 | 0.00 | 44 | 1021.1 |
| 20260510165452 | 17 | 66 | 4.8 | 14.5 | 0.00 | 0.00 | 0.00 | 42 | 1021.2 |
| 20260510164948 | 18 | 134 | 9.7 | 24.1 | 0.00 | 0.00 | 0.00 | 40 | 1021.1 |
| 20260510164445 | 18 | 91 | 9.7 | 22.5 | 0.00 | 0.00 | 0.00 | 40 | 1021.1 |
| 20260510163941 | 18 | 75 | 11.3 | 24.1 | 0.00 | 0.00 | 0.00 | 39 | 1021.0 |
| 20260510163437 | 17 | 60 | 4.8 | 22.5 | 0.00 | 0.00 | 0.00 | 40 | 1021.0 |
| 20260510162931 | 17 | 65 | 3.2 | 17.7 | 0.00 | 0.00 | 0.00 | 41 | 1020.7 |
| 20260510162429 | 18 | 47 | 6.4 | 22.5 | 0.00 | 0.00 | 0.00 | 39 | 1020.8 |
| 20260510161925 | 18 | 209 | 6.4 | 22.5 | 0.00 | 0.00 | 0.00 | 41 | 1020.7 |
| 20260510161420 | 18 | 59 | 11.3 | 17.7 | 0.00 | 0.00 | 0.00 | 41 | 1020.7 |
| 20260510160918 | 17 | 134 | 4.8 | 17.7 | 0.00 | 0.00 | 0.00 | 43 | 1020.7 |
| 20260510160414 | 17 | 147 | 9.7 | 20.9 | 0.00 | 0.00 | 0.00 | 44 | 1020.7 |
| 20260510155908 | 17 | 91 | 6.4 | 22.5 | 0.00 | 0.00 | 0.00 | 43 | 1020.6 |
| 20260510155405 | 17 | 82 | 6.4 | 17.7 | 0.00 | 0.00 | 0.00 | 43 | 1020.9 |
| 20260510154901 | 17 | 176 | 6.4 | 22.5 | 0.00 | 0.00 | 0.00 | 43 | 1020.8 |
| 20260510154357 | 17 | 110 | 17.7 | 29.0 | 0.00 | 0.00 | 0.00 | 41 | 1020.7 |
| 20260510153851 | 17 | 65 | 9.7 | 20.9 | 0.00 | 0.00 | 0.00 | 44 | 1020.7 |
| 20260510153347 | 17 | 39 | 14.5 | 24.1 | 0.00 | 0.00 | 0.00 | 44 | 1020.6 |
| 20260510152844 | 17 | 97 | 6.4 | 12.9 | 0.00 | 0.00 | 0.00 | 47 | 1020.8 |
| 20260510152342 | 16 | 88 | 14.5 | 24.1 | 0.00 | 0.00 | 0.00 | 46 | 1020.8 |
| 20260510151838 | 16 | 22 | 8.0 | 16.1 | 0.00 | 0.00 | 0.00 | 49 | 1020.7 |
| 20260510151336 | 16 | 78 | 9.7 | 20.9 | 0.00 | 0.00 | 0.00 | 48 | 1020.8 |
| 20260510150831 | 16 | 55 | 3.2 | 14.5 | 0.00 | 0.00 | 0.00 | 52 | 1021.0 |
| 20260510150327 | 16 | 118 | 16.1 | 24.1 | 0.00 | 0.00 | 0.00 | 47 | 1020.9 |
| 20260510145824 | 16 | 81 | 3.2 | 16.1 | 0.00 | 0.00 | 0.00 | 53 | 1020.7 |
| 20260510145320 | 16 | 92 | 4.8 | 17.7 | 0.00 | 0.00 | 0.00 | 51 | 1020.9 |
| 20260510144817 | 16 | 82 | 4.8 | 9.7 | 0.00 | 0.00 | 0.00 | 52 | 1020.8 |
| 20260510144314 | 16 | 66 | 3.2 | 16.1 | 0.00 | 0.00 | 0.00 | 52 | 1020.9 |
| 20260510143813 | 16 | 98 | 6.4 | 14.5 | 0.00 | 0.00 | 0.00 | 53 | 1021.2 |
| 20260510143310 | 16 | 25 | 12.9 | 16.1 | 0.00 | 0.00 | 0.00 | 51 | 1021.1 |
| 20260510142806 | 15 | 55 | 4.8 | 12.9 | 0.00 | 0.00 | 0.00 | 54 | 1021.2 |
| 20260510142306 | 15 | 96 | 6.4 | 11.3 | 0.00 | 0.00 | 0.00 | 54 | 1021.1 |
| 20260510141801 | 15 | 110 | 6.4 | 14.5 | 0.00 | 0.00 | 0.00 | 53 | 1021.0 |
| 20260510141258 | 15 | 127 | 8.0 | 22.5 | 0.00 | 0.00 | 0.00 | 54 | 1020.7 |
| 20260510140755 | 15 | 76 | 1.6 | 11.3 | 0.00 | 0.00 | 0.00 | 53 | 1020.6 |
| 20260510140250 | 15 | 48 | 6.4 | 20.9 | 0.00 | 0.00 | 0.00 | 54 | 1020.4 |
| 20260510135744 | 15 | 105 | 8.0 | 14.5 | 0.00 | 0.00 | 0.00 | 54 | 1020.1 |
| 20260510135240 | 15 | 104 | 6.4 | 11.3 | 0.00 | 0.00 | 0.00 | 54 | 1020.0 |
| 20260510134738 | 15 | 109 | 1.6 | 11.3 | 0.00 | 0.00 | 0.00 | 56 | 1020.3 |
| 20260510134235 | 15 | 76 | 14.5 | 16.1 | 0.00 | 0.00 | 0.00 | 54 | 1020.1 |
| 20260510133730 | 15 | 40 | 6.4 | 16.1 | 0.00 | 0.00 | 0.00 | 54 | 1020.0 |
| 20260510133226 | 15 | 62 | 11.3 | 16.1 | 0.00 | 0.00 | 0.00 | 54 | 1019.8 |
| 20260510132722 | 15 | 118 | 3.2 | 9.7 | 0.00 | 0.00 | 0.00 | 56 | 1019.9 |
| 20260510132220 | 15 | 55 | 8.0 | 11.3 | 0.00 | 0.00 | 0.00 | 57 | 1019.9 |
| 20260510131717 | 15 | 60 | 3.2 | 17.7 | 0.00 | 0.00 | 0.00 | 57 | 1019.7 |
| 20260510131215 | 15 | 87 | 4.8 | 11.3 | 0.00 | 0.00 | 0.00 | 58 | 1019.7 |
| 20260510130711 | 15 | 112 | 3.2 | 16.1 | 0.00 | 0.00 | 0.00 | 60 | 1019.4 |
| 20260510130209 | 15 | 96 | 6.4 | 12.9 | 0.00 | 0.00 | 0.00 | 59 | 1019.5 |
| 20260510125704 | 15 | 105 | 3.2 | 9.7 | 0.00 | 0.00 | 0.00 | 59 | 1019.0 |
| 20260510125200 | 15 | 80 | 3.2 | 12.9 | 0.00 | 0.00 | 0.00 | 60 | 1019.2 |
| 20260510124652 | 15 | 104 | 3.2 | 12.9 | 0.00 | 0.00 | 0.00 | 58 | 1018.7 |
| 20260510124149 | 15 | 62 | 4.8 | 9.7 | 0.00 | 0.00 | 0.00 | 60 | 1018.6 |
| 20260510123644 | 15 | 64 | 4.8 | 12.9 | 0.00 | 0.00 | 0.00 | 60 | 1018.4 |
| 20260510123140 | 14 | 118 | 3.2 | 12.9 | 0.00 | 0.00 | 0.00 | 61 | 1018.6 |
| 20260510122637 | 14 | 98 | 9.7 | 12.9 | 0.00 | 0.00 | 0.00 | 59 | 1018.2 |
| 20260510122133 | 14 | 57 | 8.0 | 12.9 | 0.00 | 0.00 | 0.00 | 59 | 1018.4 |
| 20260510121630 | 14 | 113 | 3.2 | 14.5 | 0.00 | 0.00 | 0.00 | 61 | 1018.3 |
| 20260510121127 | 14 | 81 | 6.4 | 24.1 | 0.00 | 0.00 | 0.00 | 61 | 1018.6 |
| 20260510120625 | 14 | 92 | 1.6 | 14.5 | 0.00 | 0.00 | 0.00 | 65 | 1018.3 |
| 20260510120120 | 14 | 78 | 6.4 | 16.1 | 0.00 | 0.00 | 0.00 | 63 | 1018.3 |
| 20260510115617 | 14 | 107 | 3.2 | 6.4 | 0.00 | 0.00 | 0.00 | 64 | 1018.3 |
| 20260510115115 | 14 | 118 | 3.2 | 11.3 | 0.00 | 0.00 | 0.00 | 65 | 1018.4 |
| 20260510114610 | 14 | 70 | 3.2 | 14.5 | 0.00 | 0.00 | 0.00 | 64 | 1018.2 |
| 20260510114106 | 14 | 101 | 4.8 | 12.9 | 0.00 | 0.00 | 0.00 | 65 | 1017.9 |
| 20260510113602 | 14 | 118 | 3.2 | 6.4 | 0.00 | 0.00 | 0.00 | 67 | 1017.9 |
| 20260510113059 | 14 | 108 | 6.4 | 17.7 | 0.00 | 0.00 | 0.00 | 65 | 1017.5 |
| 20260510112556 | 14 | 98 | 6.4 | 17.7 | 0.00 | 0.00 | 0.00 | 68 | 1017.5 |
| 20260510112052 | 14 | 46 | 14.5 | 20.9 | 0.00 | 0.00 | 0.00 | 68 | 1017.5 |
| 20260510111549 | 14 | 99 | 11.3 | 16.1 | 0.00 | 0.00 | 0.00 | 70 | 1017.7 |
| 20260510111045 | 14 | 97 | 8.0 | 11.3 | 0.00 | 0.00 | 0.00 | 73 | 1017.5 |
| 20260510110541 | 14 | 133 | 4.8 | 12.9 | 0.00 | 0.00 | 0.00 | 74 | 1017.6 |
| 20260510110037 | 14 | 67 | 4.8 | 11.3 | 0.00 | 0.00 | 0.00 | 75 | 1017.6 |
| 20260510105533 | 14 | 112 | 4.8 | 9.7 | 0.00 | 0.00 | 0.00 | 75 | 1017.6 |
| 20260510105028 | 14 | 102 | 9.7 | 14.5 | 0.00 | 0.00 | 0.00 | 74 | 1017.5 |
| 20260510104525 | 14 | 76 | 3.2 | 11.3 | 0.00 | 0.00 | 0.00 | 75 | 1017.6 |
| 20260510104021 | 15 | 101 | 1.6 | 11.3 | 0.00 | 0.00 | 0.00 | 75 | 1017.3 |
| 20260510103518 | 15 | 42 | 4.8 | 14.5 | 0.00 | 0.00 | 0.00 | 75 | 1017.3 |
| 20260510103014 | 15 | 60 | 8.0 | 14.5 | 0.00 | 0.00 | 0.00 | 75 | 1017.0 |
| 20260510102510 | 15 | 100 | 8.0 | 9.7 | 0.00 | 0.00 | 0.00 | 77 | 1017.1 |
| 20260510102007 | 15 | 119 | 3.2 | 14.5 | 0.00 | 0.00 | 0.00 | 81 | 1016.8 |
| 20260510101504 | 15 | 79 | 1.6 | 6.4 | 0.00 | 0.00 | 0.00 | 80 | 1016.8 |
| 20260510101003 | 15 | 77 | 4.8 | 6.4 | 0.00 | 0.00 | 0.00 | 79 | 1016.9 |
| 20260510100458 | 15 | 124 | 6.4 | 11.3 | 0.00 | 0.00 | 0.00 | 79 | 1016.7 |
| 20260510095955 | 15 | 96 | 6.4 | 11.3 | 0.00 | 0.00 | 0.00 | 79 | 1016.6 |
| 20260510095451 | 15 | 79 | 1.6 | 6.4 | 0.00 | 0.00 | 0.00 | 78 | 1016.6 |
| 20260510094950 | 15 | 132 | 4.8 | 9.7 | 0.00 | 0.00 | 0.00 | 76 | 1016.4 |
| 20260510094445 | 15 | 90 | 4.8 | 6.4 | 0.00 | 0.00 | 0.00 | 75 | 1016.4 |
| 20260510093941 | 15 | 68 | 3.2 | 6.4 | 0.00 | 0.00 | 0.00 | 75 | 1016.3 |
| 20260510093437 | 16 | 55 | 3.2 | 4.8 | 0.00 | 0.00 | 0.00 | 73 | 1016.3 |
| 20260510092933 | 16 | 75 | 1.6 | 4.8 | 0.00 | 0.00 | 0.00 | 73 | 1016.2 |
| 20260510092430 | 16 | 42 | 6.4 | 9.7 | 0.00 | 0.00 | 0.00 | 72 | 1015.9 |
| 20260510091924 | 16 | 48 | 3.2 | 11.3 | 0.00 | 0.00 | 0.00 | 73 | 1015.9 |
| 20260510091422 | 16 | 94 | 1.6 | 4.8 | 0.00 | 0.00 | 0.00 | 74 | 1016.0 |
| 20260510090918 | 15 | 79 | 3.2 | 6.4 | 0.00 | 0.00 | 0.00 | 74 | 1016.0 |
| 20260510090415 | 16 | 51 | 3.2 | 6.4 | 0.00 | 0.00 | 0.00 | 74 | 1015.9 |
| 20260510085911 | 16 | 94 | 0.0 | 3.2 | 0.00 | 0.00 | 0.00 | 75 | 1015.7 |
| 20260510085406 | 16 | 58 | 3.2 | 6.4 | 0.00 | 0.00 | 0.00 | 74 | 1015.8 |
| 20260510084901 | 16 | 83 | 4.8 | 6.4 | 0.00 | 0.00 | 0.00 | 75 | 1015.5 |
| 20260510084359 | 16 | 68 | 3.2 | 6.4 | 0.00 | 0.00 | 0.00 | 75 | 1015.7 |
| 20260510083856 | 16 | 107 | 0.0 | 3.2 | 0.00 | 0.00 | 0.00 | 75 | 1015.4 |
| 20260510083352 | 16 | 95 | 3.2 | 4.8 | 0.00 | 0.00 | 0.00 | 75 | 1015.3 |
| 20260510082848 | 16 | 80 | 4.8 | 4.8 | 0.00 | 0.00 | 0.00 | 74 | 1015.2 |
| 20260510082345 | 16 | 87 | 3.2 | 6.4 | 0.00 | 0.00 | 0.00 | 74 | 1015.1 |
| 20260510081844 | 16 | 78 | 3.2 | 9.7 | 0.00 | 0.00 | 0.00 | 73 | 1014.9 |
| 20260510081340 | 16 | 92 | 3.2 | 11.3 | 0.00 | 0.00 | 0.00 | 72 | 1014.8 |
| 20260510080837 | 16 | 123 | 3.2 | 4.8 | 0.00 | 0.00 | 0.00 | 71 | 1014.9 |
| 20260510080331 | 17 | 107 | 3.2 | 6.4 | 0.00 | 0.00 | 0.00 | 70 | 1014.7 |
| 20260510075828 | 17 | 94 | 1.6 | 9.7 | 0.00 | 0.00 | 0.00 | 71 | 1014.7 |
| 20260510075326 | 17 | 121 | 8.0 | 12.9 | 0.00 | 0.00 | 0.00 | 69 | 1014.7 |
| 20260510074822 | 17 | 76 | 1.6 | 6.4 | 0.00 | 0.00 | 0.00 | 69 | 1014.6 |
| 20260510074314 | 17 | 79 | 3.2 | 12.9 | 0.00 | 0.00 | 0.00 | 68 | 1014.6 |
| 20260510073809 | 17 | 108 | 4.8 | 12.9 | 0.00 | 0.00 | 0.00 | 68 | 1014.7 |
| 20260510073305 | 17 | 44 | 6.4 | 12.9 | 0.00 | 0.00 | 0.00 | 68 | 1014.6 |
| 20260510072801 | 17 | 102 | 3.2 | 9.7 | 0.00 | 0.00 | 0.00 | 69 | 1014.6 |
| 20260510072258 | 17 | 109 | 6.4 | 12.9 | 0.00 | 0.00 | 0.00 | 68 | 1014.7 |
| 20260510071754 | 17 | 98 | 6.4 | 11.3 | 0.00 | 0.00 | 0.00 | 68 | 1014.7 |
| 20260510071252 | 17 | 81 | 4.8 | 14.5 | 0.00 | 0.00 | 0.00 | 67 | 1014.8 |
| 20260510070751 | 17 | 105 | 1.6 | 9.7 | 0.00 | 0.00 | 0.00 | 68 | 1014.4 |
| 20260510070247 | 17 | 86 | 0.0 | 12.9 | 0.00 | 0.00 | 0.00 | 67 | 1014.5 |
| 20260510065747 | 18 | 150 | 8.0 | 11.3 | 0.00 | 0.00 | 0.00 | 67 | 1014.3 |
| 20260510065243 | 18 | 77 | 3.2 | 6.4 | 0.00 | 0.00 | 0.00 | 67 | 1014.4 |
| 20260510064740 | 18 | 135 | 6.4 | 12.9 | 0.00 | 0.00 | 0.00 | 67 | 1014.4 |
| 20260510064238 | 18 | 119 | 6.4 | 11.3 | 0.00 | 0.00 | 0.00 | 65 | 1014.5 |
| 20260510063734 | 18 | 92 | 3.2 | 12.9 | 0.00 | 0.00 | 0.00 | 65 | 1014.5 |
| 20260510063231 | 18 | 90 | 6.4 | 16.1 | 0.00 | 0.00 | 0.00 | 65 | 1014.5 |
| 20260510062727 | 18 | 100 | 3.2 | 9.7 | 0.00 | 0.00 | 0.00 | 64 | 1014.6 |
| 20260510062223 | 18 | 68 | 6.4 | 9.7 | 0.00 | 0.00 | 0.00 | 63 | 1014.5 |
| 20260510061719 | 18 | 99 | 4.8 | 6.4 | 0.00 | 0.00 | 0.00 | 62 | 1014.6 |
| 20260510061216 | 18 | 347 | 8.0 | 11.3 | 0.00 | 0.00 | 0.00 | 61 | 1014.5 |
| 20260510060712 | 19 | 81 | 4.8 | 11.3 | 0.00 | 0.00 | 0.00 | 60 | 1014.6 |
| 20260510060209 | 18 | 147 | 6.4 | 9.7 | 0.00 | 0.00 | 0.00 | 61 | 1014.5 |
| 20260510055706 | 19 | 125 | 3.2 | 14.5 | 0.00 | 0.00 | 0.00 | 61 | 1014.2 |
| 20260510055204 | 19 | 82 | 4.8 | 14.5 | 0.00 | 0.00 | 0.00 | 63 | 1014.2 |
| 20260510054659 | 19 | 51 | 3.2 | 9.7 | 0.00 | 0.00 | 0.00 | 63 | 1014.1 |
| 20260510054155 | 19 | 74 | 0.0 | 6.4 | 0.00 | 0.00 | 0.00 | 63 | 1014.2 |
| 20260510053654 | 19 | 81 | 3.2 | 4.8 | 0.00 | 0.00 | 0.00 | 61 | 1013.7 |
| 20260510053151 | 20 | 85 | 4.8 | 6.4 | 0.00 | 0.00 | 0.00 | 59 | 1014.0 |
| 20260510052646 | 20 | 98 | 1.6 | 9.7 | 0.00 | 0.00 | 0.00 | 59 | 1013.8 |
| 20260510052143 | 19 | 94 | 3.2 | 4.8 | 0.00 | 0.00 | 0.00 | 61 | 1014.0 |
| 20260510051639 | 20 | 69 | 1.6 | 3.2 | 0.00 | 0.00 | 0.00 | 60 | 1014.1 |
| 20260510051135 | 20 | 10 | 3.2 | 3.2 | 0.00 | 0.00 | 0.00 | 58 | 1014.3 |
| 20260510050633 | 20 | 49 | 0.0 | 1.6 | 0.00 | 0.00 | 0.00 | 57 | 1014.0 |
| 20260510050130 | 20 | 48 | 1.6 | 1.6 | 0.00 | 0.00 | 0.00 | 56 | 1014.0 |
| 20260510045627 | 20 | 45 | 0.0 | 1.6 | 0.00 | 0.00 | 0.00 | 57 | 1013.8 |
| 20260510045123 | 20 | 42 | 1.6 | 1.6 | 0.00 | 0.00 | 0.00 | 57 | 1013.6 |
| 20260510044619 | 20 | 41 | 1.6 | 1.6 | 0.00 | 0.00 | 0.00 | 58 | 1013.8 |
| 20260510044117 | 20 | 41 | 0.0 | 1.6 | 0.00 | 0.00 | 0.00 | 59 | 1013.8 |
| 20260510043613 | 20 | 353 | 0.0 | 0.0 | 0.00 | 0.00 | 0.00 | 59 | 1013.7 |
| 20260510043109 | 20 | 344 | 1.6 | 3.2 | 0.00 | 0.00 | 0.00 | 57 | 1013.6 |
| 20260510042608 | 20 | 54 | 1.6 | 1.6 | 0.00 | 0.00 | 0.00 | 58 | 1013.7 |
| 20260510042103 | 20 | 57 | 1.6 | 1.6 | 0.00 | 0.00 | 0.00 | 58 | 1013.7 |
| 20260510041600 | 20 | 59 | 1.6 | 1.6 | 0.00 | 0.00 | 0.00 | 59 | 1013.7 |
| 20260510041057 | 20 | 350 | 0.0 | 1.6 | 0.00 | 0.00 | 0.00 | 62 | 1013.5 |
| 20260510040554 | 20 | 328 | 1.6 | 1.6 | 0.00 | 0.00 | 0.00 | 60 | 1013.3 |
| 20260510040050 | 20 | 49 | 1.6 | 3.2 | 0.00 | 0.00 | 0.00 | 57 | 1013.5 |
| 20260510035547 | 21 | 74 | 0.0 | 1.6 | 0.00 | 0.00 | 0.00 | 55 | 1013.4 |
| 20260510035046 | 21 | 91 | 3.2 | 6.4 | 0.00 | 0.00 | 0.00 | 54 | 1012.9 |
| 20260510034544 | 21 | 98 | 1.6 | 4.8 | 0.00 | 0.00 | 0.00 | 55 | 1012.8 |
| 20260510034041 | 21 | 90 | 1.6 | 4.8 | 0.00 | 0.00 | 0.00 | 54 | 1013.0 |
| 20260510033537 | 21 | 94 | 1.6 | 3.2 | 0.00 | 0.00 | 0.00 | 54 | 1012.8 |
| 20260510033035 | 21 | 113 | 0.0 | 4.8 | 0.00 | 0.00 | 0.00 | 55 | 1012.8 |
| 20260510032531 | 21 | 93 | 0.0 | 3.2 | 0.00 | 0.00 | 0.00 | 56 | 1012.7 |
| 20260510032027 | 21 | 132 | 1.6 | 4.8 | 0.00 | 0.00 | 0.00 | 54 | 1012.7 |
| 20260510031522 | 21 | 112 | 1.6 | 1.6 | 0.00 | 0.00 | 0.00 | 53 | 1012.7 |
| 20260510031018 | 21 | 71 | 1.6 | 6.4 | 0.00 | 0.00 | 0.00 | 53 | 1012.9 |
| 20260510030514 | 21 | 59 | 3.2 | 6.4 | 0.00 | 0.00 | 0.00 | 55 | 1012.7 |
| 20260510030011 | 22 | 50 | 3.2 | 12.9 | 0.00 | 0.00 | 0.00 | 53 | 1012.6 |
| 20260510025508 | 22 | 51 | 4.8 | 9.7 | 0.00 | 0.00 | 0.00 | 54 | 1012.5 |
| 20260510025006 | 22 | 78 | 8.0 | 14.5 | 0.00 | 0.00 | 0.00 | 54 | 1012.7 |
| 20260510024503 | 22 | 94 | 1.6 | 11.3 | 0.00 | 0.00 | 0.00 | 55 | 1012.4 |
| 20260510023958 | 21 | 17 | 4.8 | 14.5 | 0.00 | 0.00 | 0.00 | 57 | 1012.3 |
| 20260510023454 | 21 | 69 | 11.3 | 17.7 | 0.00 | 0.00 | 0.00 | 59 | 1012.0 |
| 20260510022952 | 20 | 81 | 9.7 | 14.5 | 0.00 | 0.00 | 0.00 | 61 | 1012.0 |
| 20260510022451 | 20 | 44 | 4.8 | 11.3 | 0.00 | 0.00 | 0.00 | 66 | 1011.9 |
| 20260510021949 | 21 | 35 | 9.7 | 12.9 | 0.00 | 0.00 | 0.00 | 65 | 1011.4 |
| 20260510021448 | 21 | 255 | 1.6 | 3.2 | 0.00 | 0.00 | 0.00 | 59 | 1010.7 |
| 20260510020944 | 21 | 227 | 1.6 | 1.6 | 0.00 | 0.00 | 0.00 | 61 | 1010.8 |
| 20260510020439 | 22 | 210 | 1.6 | 3.2 | 0.00 | 0.00 | 0.00 | 59 | 1010.9 |
| 20260510015935 | 22 | 246 | 1.6 | 3.2 | 0.00 | 0.00 | 0.00 | 58 | 1010.9 |
| 20260510015431 | 22 | 223 | 1.6 | 6.4 | 0.00 | 0.00 | 0.00 | 58 | 1010.6 |
| 20260510014926 | 22 | 202 | 1.6 | 4.8 | 0.00 | 0.00 | 0.00 | 58 | 1010.5 |
| 20260510014424 | 22 | 256 | 3.2 | 3.2 | 0.00 | 0.00 | 0.00 | 59 | 1010.3 |
| 20260510013920 | 22 | 255 | 1.6 | 3.2 | 0.00 | 0.00 | 0.00 | 61 | 1010.3 |
| 20260510013415 | 22 | 178 | 3.2 | 4.8 | 0.00 | 0.00 | 0.00 | 59 | 1010.2 |
| 20260510012910 | 22 | 224 | 3.2 | 3.2 | 0.00 | 0.00 | 0.00 | 59 | 1009.9 |
| 20260510012406 | 22 | 233 | 3.2 | 3.2 | 0.00 | 0.00 | 0.00 | 60 | 1009.9 |
| 20260510011900 | 22 | 233 | 1.6 | 3.2 | 0.00 | 0.00 | 0.00 | 60 | 1009.8 |
| 20260510011356 | 22 | 228 | 3.2 | 3.2 | 0.00 | 0.00 | 0.00 | 60 | 1009.6 |
| 20260510010852 | 22 | 210 | 1.6 | 1.6 | 0.00 | 0.00 | 0.00 | 63 | 1009.6 |
| 20260510010350 | 22 | 200 | 1.6 | 1.6 | 0.00 | 0.00 | 0.00 | 62 | 1009.6 |
| 20260510005846 | 23 | 226 | 1.6 | 1.6 | 0.00 | 0.00 | 0.00 | 57 | 1009.8 |
| 20260510005343 | 23 | 237 | 3.2 | 4.8 | 0.00 | 0.00 | 0.00 | 56 | 1009.5 |
| 20260510004840 | 23 | 224 | 0.0 | 3.2 | 0.00 | 0.00 | 0.00 | 59 | 1009.7 |
| 20260510004338 | 23 | 202 | 0.0 | 1.6 | 0.00 | 0.00 | 0.00 | 63 | 1009.6 |
| 20260510003835 | 23 | 202 | 0.0 | 1.6 | 0.00 | 0.00 | 0.00 | 60 | 1009.3 |
| 20260510003332 | 24 | 202 | 0.0 | 1.6 | 0.00 | 0.00 | 0.00 | 57 | 1009.4 |
| 20260510002830 | 25 | 202 | 0.0 | 1.6 | 0.00 | 0.00 | 0.00 | 53 | 1009.3 |
| 20260510002328 | 25 | 202 | 0.0 | 1.6 | 0.00 | 0.00 | 0.00 | 53 | 1009.5 |
| 20260510001825 | 25 | 202 | 0.0 | 0.0 | 0.00 | 0.00 | 0.00 | 54 | 1009.4 |
| 20260510001323 | 25 | 202 | 0.0 | 0.0 | 0.00 | 0.00 | 0.00 | 57 | 1009.4 |
| 20260510000818 | 25 | 202 | 0.0 | 1.6 | 0.00 | 0.00 | 0.00 | 54 | 1009.3 |
| 20260510000318 | 25 | 221 | 1.6 | 1.6 | 0.00 | 0.00 | 0.00 | 49 | 1009.2 |
| 20260509235813 | 26 | 220 | 0.0 | 1.6 | 0.00 | 0.00 | 0.00 | 52 | 1009.2 |
| 20260509235309 | 26 | 221 | 1.6 | 1.6 | 0.00 | 0.00 | 0.00 | 49 | 1009.2 |
| 20260509234805 | 25 | 228 | 1.6 | 1.6 | 0.00 | 0.00 | 0.00 | 54 | 1009.2 |
| 20260509234302 | 25 | 248 | 3.2 | 3.2 | 0.00 | 0.00 | 0.00 | 48 | 1009.2 |
| 20260509233801 | 25 | 216 | 1.6 | 3.2 | 0.00 | 0.00 | 0.00 | 48 | 1009.4 |
| 20260509233258 | 26 | 218 | 0.0 | 3.2 | 0.00 | 0.00 | 0.00 | 47 | 1009.4 |
| 20260509232753 | 26 | 229 | 1.6 | 4.8 | 0.00 | 0.00 | 0.00 | 44 | 1009.3 |
| 20260509232251 | 26 | 267 | 3.2 | 6.4 | 0.00 | 0.00 | 0.00 | 44 | 1009.5 |
| 20260509231747 | 26 | 280 | 1.6 | 6.4 | 0.00 | 0.00 | 0.00 | 44 | 1009.3 |
| 20260509231244 | 26 | 258 | 3.2 | 4.8 | 0.00 | 0.00 | 0.00 | 43 | 1009.6 |
| 20260509230742 | 26 | 238 | 1.6 | 3.2 | 0.00 | 0.00 | 0.00 | 44 | 1009.4 |
| 20260509230239 | 26 | 273 | 3.2 | 4.8 | 0.00 | 0.00 | 0.00 | 43 | 1009.3 |
| 20260509225734 | 26 | 299 | 3.2 | 4.8 | 0.00 | 0.00 | 0.00 | 43 | 1009.4 |
| 20260509225230 | 26 | 300 | 3.2 | 3.2 | 0.00 | 0.00 | 0.00 | 41 | 1009.5 |
| 20260509224726 | 26 | 318 | 6.4 | 11.3 | 0.00 | 0.00 | 0.00 | 41 | 1009.3 |
| 20260509224223 | 26 | 262 | 1.6 | 9.7 | 0.00 | 0.00 | 0.00 | 42 | 1009.5 |
| 20260509223720 | 27 | 266 | 6.4 | 9.7 | 0.00 | 0.00 | 0.00 | 37 | 1009.4 |
| 20260509223217 | 27 | 284 | 9.7 | 12.9 | 0.00 | 0.00 | 0.00 | 40 | 1009.2 |
| 20260509222714 | 28 | 283 | 3.2 | 6.4 | 0.00 | 0.00 | 0.00 | 40 | 1009.2 |
| 20260509222209 | 27 | 294 | 6.4 | 9.7 | 0.00 | 0.00 | 0.00 | 38 | 1009.2 |
| 20260509221705 | 26 | 248 | 3.2 | 6.4 | 0.00 | 0.00 | 0.00 | 39 | 1009.2 |
| 20260509221201 | 26 | 287 | 4.8 | 6.4 | 0.00 | 0.00 | 0.00 | 39 | 1009.5 |
| 20260509220657 | 26 | 290 | 4.8 | 6.4 | 0.00 | 0.00 | 0.00 | 42 | 1009.3 |
| 20260509220148 | 26 | 240 | 4.8 | 11.3 | 0.00 | 0.00 | 0.00 | 40 | 1009.1 |
| 20260509215644 | 26 | 324 | 6.4 | 12.9 | 0.00 | 0.00 | 0.00 | 40 | 1009.2 |
| 20260509215141 | 26 | 336 | 8.0 | 12.9 | 0.00 | 0.00 | 0.00 | 41 | 1009.4 |
| 20260509214638 | 27 | 300 | 8.0 | 17.7 | 0.00 | 0.00 | 0.00 | 38 | 1009.4 |
| 20260509214135 | 27 | 321 | 9.7 | 17.7 | 0.00 | 0.00 | 0.00 | 36 | 1009.3 |
| 20260509213631 | 27 | 312 | 12.9 | 14.5 | 0.00 | 0.00 | 0.00 | 36 | 1009.3 |
| 20260509213127 | 27 | 323 | 9.7 | 11.3 | 0.00 | 0.00 | 0.00 | 38 | 1009.4 |
| 20260509212625 | 27 | 256 | 8.0 | 11.3 | 0.00 | 0.00 | 0.00 | 38 | 1009.5 |
| 20260509212122 | 27 | 282 | 9.7 | 14.5 | 0.00 | 0.00 | 0.00 | 40 | 1009.3 |
| 20260509211618 | 27 | 312 | 11.3 | 14.5 | 0.00 | 0.00 | 0.00 | 39 | 1009.4 |
| 20260509211114 | 27 | 321 | 8.0 | 20.9 | 0.00 | 0.00 | 0.00 | 36 | 1009.6 |
| 20260509210611 | 27 | 287 | 11.3 | 17.7 | 0.00 | 0.00 | 0.00 | 39 | 1009.7 |
| 20260509210108 | 27 | 278 | 6.4 | 16.1 | 0.00 | 0.00 | 0.00 | 40 | 1009.7 |
| 20260509205602 | 27 | 290 | 1.6 | 12.9 | 0.00 | 0.00 | 0.00 | 40 | 1009.8 |
| 20260509205057 | 27 | 320 | 11.3 | 16.1 | 0.00 | 0.00 | 0.00 | 40 | 1009.8 |